TimeMST,TemperatureF,Dew PointF,Humidity,Sea Level PressureIn,VisibilityMPH,Wind Direction,Wind SpeedMPH,Gust SpeedMPH,PrecipitationIn,Events,Conditions,WindDirDegrees,DateUTC
12:04 AM,14.0,5.0,67,30.18,10.0,South,9.2,-,N/A,,Clear,190,2013-01-04 07:04:00
12:24 AM,15.8,5.0,62,30.17,10.0,South,9.2,-,N/A,,Clear,190,2013-01-04 07:24:00
12:44 AM,14.0,5.0,67,30.17,10.0,South,6.9,-,N/A,,Clear,190,2013-01-04 07:44:00
1:04 AM,14.0,5.0,67,30.17,10.0,South,6.9,-,N/A,,Clear,190,2013-01-04 08:04:00
1:24 AM,17.6,3.2,53,30.16,10.0,SSW,8.1,-,N/A,,Clear,200,2013-01-04 08:24:00
1:43 AM,17.6,5.0,58,30.17,10.0,SSW,9.2,-,N/A,,Clear,200,2013-01-04 08:43:00
2:04 AM,17.6,5.0,58,30.17,10.0,SSW,8.1,-,N/A,,Clear,200,2013-01-04 09:04:00
2:24 AM,17.6,5.0,58,30.17,10.0,SSW,8.1,-,N/A,,Clear,200,2013-01-04 09:24:00
7:50 AM,17.6,5.0,58,30.14,50.0,South,8.1,-,N/A,,Clear,190,2013-01-04 14:50:00
8:47 AM,23.0,8.6,54,30.14,50.0,South,5.8,-,N/A,,Clear,180,2013-01-04 15:47:00
10:50 AM,39.2,14.0,36,30.14,50.0,SW,3.5,-,N/A,,Clear,220,2013-01-04 17:50:00
11:47 AM,42.8,8.6,25,30.11,50.0,SSW,3.5,-,N/A,,Clear,200,2013-01-04 18:47:00
12:47 PM,44.6,3.2,18,30.06,50.0,Calm,Calm,-,N/A,,Clear,0,2013-01-04 19:47:00
2:50 PM,44.6,12.2,27,30.02,50.0,NE,6.9,-,N/A,,Clear,50,2013-01-04 21:50:00
9:24 PM,21.2,14.0,74,30.02,10.0,South,6.9,-,N/A,,Clear,180,2013-01-05 04:24:00
9:44 PM,24.8,10.4,54,30.02,10.0,SSW,5.8,-,N/A,,Clear,210,2013-01-05 04:44:00
10:04 PM,28.4,10.4,47,30.03,10.0,SW,5.8,-,N/A,,Clear,230,2013-01-05 05:04:00
10:24 PM,26.6,10.4,51,30.03,10.0,WSW,6.9,-,N/A,,Clear,240,2013-01-05 05:24:00
10:43 PM,28.4,12.2,51,30.04,10.0,SW,3.5,-,N/A,,Clear,230,2013-01-05 05:43:00
11:03 PM,26.6,12.2,55,30.05,10.0,WNW,3.5,-,N/A,,Clear,300,2013-01-05 06:03:00
11:23 PM,28.4,12.2,51,30.06,10.0,NW,4.6,-,N/A,,Clear,310,2013-01-05 06:23:00
11:43 PM,26.6,12.2,55,30.05,10.0,West,3.5,-,N/A,,Clear,270,2013-01-05 06:43:00